Location: Bakov nad Jizerou
(50.4784°N, 14.9394°E)
Time: 04:33:27
(UTC+00:00)

Cosmos 1727 Rocket - Pass Details

Date: 01 November 2021
Orbit: 960 x 997 km, 82.9° (Epoch: 07 December)

Event Time Altitude Azimuth Distance (km) Brightness Sun altitude
Rises 16:26:15 0° 343° (NNW) 3,666 7.1 -8.5°
Reaches altitude 10° 16:29:05 10° 332° (NNW) 2,711 6.5 -8.9°
Maximum altitude 16:34:12 28° 276° (W) 1,724 6.2 -9.7°
Drops below altitude 10° 16:39:17 10° 220° (SW) 2,692 7.1 -10.5°
Sets 16:42:06 0° 209° (SSW) 3,634 7.6 -11.0°
